Zurück zum Katalog

HAIYANG 2C

AktivWissenschaftLEO
NORAD 46469·PAYLOAD·🇨🇳 China

Gestartet Sep 21, 2020 von Jiuquan Satellite Launch Center

Loading…

Nächste Überflüge (nächste 24 Stunden)

TLE

AktuellSource: CelesTrak SupGP

Epoche: Sep 14, 2026, 00:00 UTC

1 46469C 20066A   26257.00000000 -.00000079  00000+0 -71303-4 0  2577
2 46469  66.0001 354.1584 0004995 249.2917  30.7344 13.83374311    11

Verfolge HAIYANG 2C in Echtzeit mit AllMySat

Download on the App Store